Temp
17 18 18 18 18 18 18 19 19 19 19 19 19 20 20 21 21 21 21 22 22 22 22 22 23 22 22 18 17 15 17 18 20 19 22 20 22 21 19 21 20 19 17 13 14
17 17 17 17 17 18 18 17 18 18 18 19 19 20 20 21 21 20 21 21 22 22 22 22 20 21 17 19 17 17 17 20 19 19 21 20 21 20 21 19 20 19 14 12 13
16 16 16 17 16 16 17 16 17 18 18 19 19 20 20 21 20 21 21 21 21 21 22 22 21 20 20 19 18 17 19 19 20 20 20 20 20 19 20 20 19 18 14 10 9
17 17 16 16 16 15 15 15 16 18 18 18 19 19 20 21 22 21 21 21 21 21 21 21 19 20 19 20 18 21 19 19 20 20 19 20 19 20 19 17 12 10 9 8 8
16 17 16 16 16 15 15 15 16 17 18 18 19 19 20 19 20 21 21 21 21 21 21 19 20 19 20 19 19 19 19 18 19 18 18 18 19 19 17 11 10 9 8 7 7
16 16 16 16 15 15 15 15 16 16 17 18 18 19 19 19 20 20 21 21 21 21 20 20 18 18 18 19 19 19 19 18 17 18 18 18 18 18 14 10 9 8 7 6 6
13 14 14 14 14 15 15 15 15 16 17 17 18 18 17 18 19 19 20 20 20 20 19 20 20 20 18 18 18 18 19 17 19 18 19 16 18 17 14 10 9 7 6 6 5
12 12 13 13 14 14 14 15 15 16 17 17 18 17 16 19 18 18 19 19 19 20 20 19 20 17 18 17 16 18 16 18 19 18 18 18 20 17 12 12 9 7 6 6 5
12 12 12 13 13 13 14 14 15 16 16 16 16 17 17 18 17 18 18 19 19 19 19 19 18 15 17 16 16 14 17 16 18 18 18 19 19 16 13 12 9 7 6 6 6
12 12 12 12 13 13 13 14 14 15 15 15 15 16 16 17 17 17 18 18 17 17 17 16 13 13 13 15 17 16 16 15 16 18 18 18 17 14 13 11 8 6 6 6 5
11 12 12 12 12 12 13 14 14 13 13 16 16 17 16 16 16 16 17 17 16 16 16 14 15 15 15 15 17 15 16 17 16 17 18 16 16 16 10 8 7 6 6 6 5
11 11 12 12 12 12 12 12 15 15 14 14 14 15 16 17 16 15 17 17 16 15 13 14 14 15 15 14 16 15 16 15 15 15 16 15 15 14 10 9 8 6 6 6 5
11 11 12 12 11 12 12 13 15 15 14 15 13 14 14 16 16 14 15 14 15 13 13 14 17 13 15 14 14 14 14 14 16 15 14 15 14 12 8 7 6 6 5 5 5
12 11 11 11 11 12 12 14 14 15 13 14 14 14 14 15 16 14 15 15 14 14 12 14 15 15 14 15 14 14 13 14 15 15 15 14 15 14 9 7 6 5 5 4 4
12 12 11 11 13 12 14 14 15 15 13 15 13 14 13 15 13 13 14 15 13 13 14 15 13 14 14 14 14 15 12 13 14 13 14 13 13 13 9 10 7 5 4 4 3
12 12 11 11 11 13 14 14 15 15 14 14 12 13 14 14 13 12 14 14 13 14 14 14 14 13 14 13 14 11 12 11 10 11 11 13 14 13 12 12 7 6 5 4 3
12 11 11 11 12 13 13 14 14 14 16 13 12 12 13 12 12 13 12 12 12 12 12 14 14 14 14 13 13 13 13 13 13 11 13 11 12 14 13 10 9 7 5 4 3
12 12 11 11 12 13 12 12 14 16 14 12 12 11 13 12 13 12 11 11 11 13 11 12 14 13 13 14 13 11 14 13 13 12 12 10 12 14 9 6 6 6 6 4 3
12 12 11 11 12 13 12 14 14 14 15 13 13 12 12 12 12 11 10 11 13 12 16 12 13 13 13 13 14 13 13 13 10 2 9 12 12 12 7 7 5 4 4 4 3
11 11 12 11 12 11 12 14 14 15 13 14 16 14 12 11 12 11 10 12 13 12 14 14 15 13 13 13 13 13 12 13 10 12 10 12 12 14 10 8 4 4 4 4 3
12 12 12 11 11 12 13 13 14 15 15 15 15 14 13 11 12 10 12 13 12 11 13 13 15 12 13 12 12 12 12 11 12 11 12 10 13 10 12 9 6 5 5 5 4
11 13 11 11 12 13 13 13 14 15 14 15 15 16 15 13 12 11 12 14 12 12 13 13 12 10 12 11 10 12 12 12 13 11 8 9 14 9 9 8 7 6 5 4 4
11 11 10 12 14 13 13 14 14 14 15 16 15 15 15 14 14 12 11 12 11 13 13 12 12 10 12 12 10 10 10 10 9 8 8 11 12 8 6 6 5 5 5 5 4
9 10 9 9 9 14 13 14 13 14 15 15 14 14 13 15 15 13 11 10 10 12 13 15 11 13 16 14 11 10 9 9 12 8 11 13 14 9 8 8 5 5 4 3 4
9 10 10 11 11 11 11 13 14 13 13 14 13 15 15 14 14 14 11 9 10 11 11 12 12 9 11 12 11 11 10 8 11 13 13 14 11 11 9 8 7 6 4 4 4
8 8 7 9 11 11 10 11 12 13 11 12 13 14 15 15 15 14 12 11 12 8 9 8 11 9 8 9 10 9 10 9 10 11 11 11 10 10 9 6 6 5 5 4 4
3 4 7 9 9 10 11 12 10 11 9 9 12 11 12 13 9 7 11 10 10 9 9 8 8 9 12 6 7 9 9 9 9 8 11 10 12 6 7 7 6 5 5 4 4
Height
827 828 828 828 828 828 827 827 826 826 825 825 824 822 820 819 817 816 816 817 817 817 818 818 819 819 819 825 827 832 853 864 855 858 846 842 841 839 839 840 839 840 845 851 846
826 827 828 828 828 828 827 826 826 825 825 824 822 821 819 817 816 815 817 816 816 817 818 818 820 820 827 829 832 840 856 849 845 845 844 842 841 841 841 844 841 842 848 849 844
825 826 826 827 827 827 827 826 825 825 824 822 821 820 819 817 816 816 815 815 816 817 818 819 820 822 829 831 836 842 847 842 838 838 840 842 841 840 842 847 843 845 849 850 847
824 825 825 826 826 826 826 825 824 823 822 821 820 819 817 817 828 815 815 815 816 817 819 820 822 828 836 836 836 839 839 840 836 836 839 841 839 840 841 846 849 852 854 853 851
822 823 824 824 824 824 824 824 823 822 821 820 819 818 818 819 817 814 814 815 816 818 819 820 824 829 835 836 837 839 839 839 836 837 838 840 840 840 844 852 853 854 854 855 854
819 820 821 822 823 823 823 822 822 821 820 819 819 818 819 825 813 813 813 815 816 817 819 820 823 825 834 836 838 837 839 840 837 837 837 839 841 840 850 854 856 856 858 858 856
817 818 819 820 821 821 821 821 820 820 819 818 817 817 818 816 812 813 813 814 816 817 819 820 820 824 830 837 837 839 841 841 834 835 834 838 844 843 845 852 856 858 858 857 857
814 816 817 818 819 819 819 819 819 818 817 817 817 817 817 810 810 812 813 814 816 817 819 820 821 826 831 836 843 845 850 851 834 834 834 836 843 841 846 846 853 856 858 858 858
811 813 815 816 817 817 817 817 817 816 816 816 817 817 815 809 810 810 812 813 816 818 819 821 822 834 836 846 854 858 855 856 845 834 835 836 838 840 845 847 855 859 860 859 859
808 809 811 813 814 815 816 816 815 815 815 816 816 821 811 807 807 809 811 814 816 819 823 826 835 844 850 850 859 856 857 856 850 837 836 839 839 843 845 850 858 862 863 863 862
804 806 808 811 812 813 815 816 818 817 814 806 805 804 804 806 807 809 810 813 816 822 832 834 841 843 837 838 837 845 849 847 843 838 838 842 842 833 849 856 860 863 865 866 866
800 803 805 808 810 812 813 814 811 813 812 800 802 802 800 802 808 809 810 815 819 830 835 841 842 829 832 839 838 845 848 850 845 841 842 843 843 838 848 852 855 860 863 863 866
796 799 802 806 808 810 810 809 810 810 814 799 797 797 798 800 801 807 808 813 820 833 835 836 823 826 831 840 844 847 847 849 842 843 844 845 843 841 854 857 859 861 863 866 866
791 794 799 804 809 806 806 804 808 810 821 803 795 791 794 795 802 801 803 808 818 825 835 832 823 826 832 833 838 846 839 840 843 847 853 845 850 835 847 855 859 862 865 866 866
784 789 793 797 797 800 799 800 806 810 835 788 792 791 792 795 800 804 803 805 817 820 825 821 827 828 829 827 831 833 838 842 843 848 850 850 855 836 846 843 853 862 867 868 868
776 782 788 793 794 794 796 799 806 819 812 790 791 792 795 797 800 804 805 805 810 817 820 819 818 821 819 824 825 837 840 848 858 857 863 840 840 836 833 823 844 848 852 861 866
768 774 780 784 785 791 794 798 817 809 775 788 791 792 792 800 802 801 807 811 816 827 826 819 818 814 816 826 828 830 837 852 858 862 845 848 847 822 816 826 833 841 851 858 860
758 766 770 775 781 786 792 801 800 764 776 780 784 792 792 794 799 804 809 811 810 810 826 823 820 813 811 811 820 832 827 840 847 853 842 851 837 811 824 833 835 836 843 852 858
748 753 758 764 772 777 782 778 762 757 757 775 783 789 793 790 793 801 806 804 795 801 797 815 811 804 804 806 807 824 827 822 849 905 864 829 821 812 831 833 838 840 843 846 850
730 736 739 750 760 766 764 754 749 742 753 759 759 769 782 789 789 798 800 785 785 786 782 790 800 804 806 805 809 809 812 826 841 842 850 824 819 803 819 822 838 841 839 843 847
728 724 722 736 749 746 739 740 742 740 738 752 752 759 768 777 778 790 776 773 775 783 782 786 788 808 806 805 800 810 812 819 817 825 828 840 810 802 799 811 822 828 829 832 837
715 709 712 726 729 720 722 722 734 731 737 739 740 738 750 762 769 774 766 757 761 768 778 779 787 811 800 799 800 796 797 798 806 824 841 832 794 804 803 806 810 814 820 827 833
706 707 711 712 704 709 715 717 722 728 728 729 733 733 737 749 754 755 759 752 756 759 764 772 786 811 798 796 802 801 799 799 807 823 829 820 798 810 811 810 812 812 816 819 825
702 703 705 705 705 698 707 708 713 715 719 720 723 732 737 732 734 743 753 754 757 754 754 751 775 766 751 762 777 795 794 797 787 820 800 783 783 806 806 805 812 811 812 816 819
692 692 692 693 698 703 705 698 702 707 712 713 720 712 722 733 733 732 747 755 757 755 758 751 761 774 764 761 768 770 780 791 782 772 780 770 784 786 793 796 797 801 807 811 813
688 694 697 693 689 697 702 704 701 699 709 708 706 709 711 710 711 720 731 739 735 760 758 764 759 770 778 777 772 774 770 778 775 776 776 778 783 779 782 793 798 799 803 807 809
693 694 693 693 693 691 688 691 701 704 710 712 706 712 711 709 722 728 719 724 729 737 751 762 767 766 748 792 786 773 763 772 773 779 765 778 758 787 786 789 792 797 797 799 807
Wind_Speed
2 2 2 3 3 3 3 4 5 7 8 9 10 11 12 13 13 7 2 1 1 4 3 4 3 4 5 4 4 3 4 3 5 6 3 1 2 1 1 2 3 4 5 5 9
3 4 4 4 5 5 4 4 5 6 8 10 11 12 12 13 11 3 0 2 3 6 4 4 2 4 4 3 3 4 3 6 5 4 3 1 1 1 1 4 3 4 7 14 17
6 5 5 5 4 4 5 5 6 7 9 11 12 11 10 11 3 1 1 3 4 5 5 5 6 3 4 2 3 1 4 4 3 3 4 3 1 1 3 2 1 2 3 11 16
9 8 7 6 5 4 5 5 7 7 10 11 11 10 8 5 1 0 1 4 6 6 8 5 4 3 3 2 1 2 0 3 1 2 4 3 2 2 3 3 6 9 8 7 14
11 11 10 8 6 5 6 6 8 8 10 12 11 9 4 3 5 1 1 5 9 6 5 3 3 3 4 4 2 2 0 1 2 4 3 2 4 4 3 7 10 12 13 11 11
14 12 11 9 7 6 6 7 8 9 10 11 9 5 2 3 2 1 3 5 7 7 5 4 6 4 5 3 3 2 1 4 4 3 3 4 3 4 4 6 9 10 10 9 12
13 13 11 9 8 7 7 8 9 10 11 10 7 1 2 9 3 4 4 5 6 6 5 4 8 3 4 4 0 2 2 7 2 1 3 6 2 4 6 7 8 8 7 8 11
15 13 12 10 8 8 8 8 10 11 10 5 1 2 6 3 5 6 7 7 7 6 6 6 6 6 4 4 5 2 4 2 2 0 1 4 5 3 7 7 6 5 5 7 10
16 14 13 11 9 9 9 9 10 9 5 2 1 2 7 2 4 7 8 7 9 8 7 9 5 4 4 5 4 5 3 4 6 1 2 3 5 4 5 5 5 4 5 6 7
18 16 14 12 10 9 8 8 9 7 2 2 1 2 2 4 5 8 7 12 4 6 4 6 5 4 3 4 5 6 4 5 5 3 2 2 8 5 2 5 5 5 5 6 7
20 17 15 13 11 9 6 4 2 2 3 8 5 3 4 4 6 5 7 8 4 6 5 2 3 8 12 9 3 5 4 6 2 3 3 6 6 7 3 5 6 5 5 5 6
22 18 15 13 11 7 4 2 3 2 6 11 4 4 4 8 3 3 11 6 4 5 5 4 7 8 5 5 4 4 4 6 5 3 2 5 9 7 1 3 5 8 7 7 5
24 21 17 13 10 10 11 9 1 1 2 6 6 5 5 10 6 9 10 5 4 6 7 8 3 8 7 5 6 5 7 5 6 1 2 2 7 4 1 2 4 4 5 4 6
28 22 19 14 8 13 8 16 13 1 3 6 5 5 4 8 3 2 10 5 3 11 8 6 2 6 4 6 7 6 8 7 5 4 4 1 4 4 3 3 4 5 6 6 6
31 26 23 25 7 10 6 16 16 3 5 3 3 3 2 6 7 2 3 4 9 8 7 7 7 5 5 7 7 6 6 7 4 4 2 3 0 7 3 6 8 7 6 6 6
33 30 27 27 11 7 10 19 9 3 10 4 4 6 6 2 2 3 3 4 4 5 1 4 1 6 8 2 5 9 6 6 4 3 2 8 8 4 5 6 4 10 12 11 8
34 32 33 28 12 13 21 10 2 8 0 6 5 6 3 5 3 4 7 7 7 5 6 1 5 3 4 6 3 1 6 1 2 1 5 3 3 7 3 2 2 14 12 10 10
36 34 37 35 21 25 16 4 11 8 9 2 5 5 8 7 4 5 7 7 6 3 4 7 5 11 7 7 8 8 6 5 7 4 3 2 6 6 2 1 2 7 13 12 10
39 42 34 41 32 34 9 14 13 7 9 11 3 4 5 4 6 5 8 7 10 12 9 7 6 0 3 4 7 6 6 4 6 2 3 4 4 3 1 1 2 8 12 15 13
37 27 34 43 40 30 11 20 18 10 8 4 19 9 12 8 8 8 10 7 7 15 4 7 3 2 3 3 2 5 7 3 2 2 4 3 4 5 6 8 6 9 14 13 10
35 5 20 45 45 12 15 15 21 6 7 9 13 10 7 9 10 7 10 2 7 9 9 6 4 1 4 7 10 4 3 2 4 4 5 2 5 6 9 9 14 13 16 16 15
5 5 24 49 14 10 18 20 11 15 10 9 4 10 12 12 10 11 15 11 10 13 14 9 5 5 8 1 1 2 7 7 4 5 2 1 6 1 4 8 11 13 13 11 12
3 4 11 40 14 14 8 21 17 15 14 17 17 8 6 11 7 10 8 5 10 14 15 10 4 2 4 2 2 6 5 4 5 3 8 4 5 0 3 4 7 10 13 13 12
4 4 2 3 2 18 19 18 24 13 13 12 6 5 5 16 10 7 9 4 6 7 5 14 6 9 16 6 6 7 7 7 8 4 6 13 9 6 6 8 7 8 7 8 9
2 4 3 5 10 5 1 5 20 13 12 16 7 26 21 11 11 15 5 4 1 4 2 7 8 5 4 5 6 6 9 13 15 16 10 12 13 8 13 12 12 9 7 8 10
3 2 1 1 4 12 10 5 2 14 10 9 19 20 22 26 22 17 12 7 8 2 5 2 3 6 5 1 1 4 10 12 14 10 11 5 10 6 7 6 6 8 9 8 8
2 3 3 3 4 8 13 17 10 7 2 3 10 4 15 14 4 6 1 5 9 12 9 7 6 5 10 3 4 7 12 14 6 5 11 11 17 6 5 7 8 9 9 9 7
Wind_Direction
301 311 317 315 324 330 338 344 343 350 349 345 341 340 339 334 332 326 316 144 166 168 155 138 83 62 72 68 59 128 67 145 194 155 178 333 108 71 280 33 11 33 66 355 12
261 280 294 305 314 321 330 337 339 346 344 342 344 342 338 334 333 336 159 186 147 151 146 139 76 54 49 56 21 79 101 202 186 188 149 99 131 315 119 3 353 96 68 36 44
258 266 275 287 304 322 324 338 341 332 342 345 344 341 336 336 356 359 44 170 158 148 132 112 103 68 63 44 14 151 164 186 194 190 143 147 245 188 143 114 229 351 34 23 33
259 263 268 274 289 308 319 326 335 330 338 342 344 341 337 343 271 260 180 166 166 145 136 115 49 65 87 90 35 100 139 179 312 152 141 170 160 270 122 128 80 78 72 48 35
253 258 265 272 279 295 305 315 326 328 333 337 340 342 354 19 253 214 128 158 162 146 132 121 96 122 128 132 102 114 301 201 277 271 247 89 219 230 98 107 91 76 60 50 40
255 257 262 270 279 278 291 305 318 324 327 331 331 334 96 248 212 186 146 161 175 160 134 130 164 168 111 123 138 168 254 273 274 182 223 184 178 152 123 122 79 73 63 51 45
251 254 260 266 272 273 280 293 307 316 321 323 320 270 119 239 199 190 168 170 169 179 137 138 136 99 128 115 66 106 317 328 286 277 219 155 130 210 127 126 94 75 73 63 48
249 252 256 261 264 268 277 291 305 314 316 331 12 161 238 228 197 184 157 134 140 137 125 139 130 102 87 117 29 65 52 352 266 180 7 157 252 194 163 135 109 95 74 62 47
247 250 258 258 256 260 271 290 304 308 305 285 255 185 263 168 185 182 174 148 127 111 99 117 83 90 50 100 23 7 233 223 313 232 151 177 250 154 175 121 132 101 78 72 55
247 249 255 252 249 254 269 291 297 295 257 227 145 16 185 209 156 156 153 146 119 109 56 48 57 85 55 116 215 195 212 244 234 217 187 191 261 174 109 135 134 111 83 70 64
248 247 246 242 238 246 264 291 325 292 215 195 193 201 133 125 134 151 148 115 93 64 150 15 120 208 197 196 124 138 169 216 226 257 174 226 255 262 134 104 137 134 115 94 64
243 244 237 230 229 227 236 216 222 151 303 235 227 272 189 170 116 190 164 135 143 160 119 57 227 210 129 151 157 139 166 242 292 222 135 276 260 261 90 158 175 160 153 142 111
240 236 227 222 214 215 214 216 169 330 257 278 193 188 193 164 203 189 153 141 136 137 189 170 215 143 144 155 169 198 198 190 215 37 214 354 278 230 59 78 96 123 129 130 138
235 229 218 204 201 209 224 239 223 236 287 256 220 245 131 145 209 108 170 142 151 187 160 233 246 160 171 194 152 206 194 176 174 126 234 139 275 289 186 167 177 169 163 161 154
233 227 213 193 170 173 214 203 180 157 284 218 161 137 136 163 134 333 157 47 161 167 141 233 172 177 185 206 162 229 138 164 141 158 113 231 287 263 154 228 196 190 185 189 173
232 224 211 202 206 200 185 153 145 94 243 190 132 160 130 141 106 117 118 49 131 114 244 240 193 167 197 119 165 148 81 56 56 108 255 215 183 257 205 211 158 179 182 185 179
226 219 208 195 202 179 157 132 132 214 109 187 181 167 148 152 145 151 162 162 157 134 216 185 214 193 147 93 54 125 117 50 330 275 228 49 145 247 236 182 180 189 179 177 183
222 215 210 201 202 190 164 141 211 215 204 110 121 113 179 157 194 163 135 174 241 124 126 169 266 169 188 180 173 190 169 169 207 199 232 46 220 243 153 117 247 170 169 176 177
222 212 200 201 191 185 175 201 222 161 167 140 82 135 219 214 150 153 193 194 196 185 184 170 269 148 151 150 144 186 203 165 108 42 65 218 275 270 146 198 100 159 166 181 183
204 201 203 193 195 177 202 208 222 181 126 138 201 169 177 191 158 191 172 194 206 190 228 195 156 221 168 118 38 179 156 99 4 210 260 264 257 228 205 202 180 186 189 191 185
215 211 193 188 187 196 208 224 219 193 142 172 203 194 189 170 186 205 204 210 202 190 180 152 155 190 127 211 178 150 181 78 135 160 185 228 245 212 192 180 193 200 197 192 187
206 229 170 171 198 209 211 203 209 207 197 235 209 190 181 175 185 207 200 208 166 149 182 200 140 166 201 293 344 224 189 163 169 213 256 172 244 115 233 200 188 197 191 188 193
205 172 189 178 206 209 211 218 219 197 203 211 219 198 172 182 222 192 190 189 158 161 166 177 196 90 341 354 342 216 196 138 102 73 197 176 253 179 248 215 213 186 190 191 188
149 172 200 178 22 214 209 215 216 215 216 201 180 156 164 211 209 221 200 190 182 182 174 165 166 198 225 192 142 191 189 180 167 164 193 228 245 205 214 202 206 212 194 180 187
215 183 179 194 213 181 131 222 209 206 217 198 216 206 195 214 208 223 173 137 126 180 151 163 217 176 208 192 162 183 179 183 204 216 203 236 228 197 200 201 206 201 160 172 194
118 150 316 187 163 195 174 158 294 212 169 212 223 213 223 220 208 204 175 191 173 147 167 344 211 157 197 248 197 206 214 189 204 219 240 251 257 204 215 106 155 182 172 190 190
175 131 136 181 158 198 225 221 192 183 199 346 220 188 217 235 25 352 166 130 153 158 155 155 153 158 223 151 123 258 216 195 180 189 197 210 243 157 191 194 192 197 188 190 188